Location: Unspecified
(48.2082°N, 0.0000°E)
Time: 21:27:44
(UTC+00:00)

Courier 1B - Visible Passes

Search period start: 18 June 2019 00:00
Search period end: 28 June 2019 00:00
Orbit: 963 x 1209 km, 28.3° (Epoch: 18 June)

Date Brightness Start Highest point End Pass type
(mag) Time Alt. Az. Time Alt. Az. Time Alt. Az.
18 Jun 9.2 22:05:53 10° SW 22:10:20 16° S 22:11:03 16° S visible
19 Jun 9.3 21:12:23 10° SSW 21:16:46 16° S 21:20:27 12° SSE visible
19 Jun 9.6 23:06:13 10° SW 23:07:20 12° SSW 23:07:20 12° SSW visible
20 Jun 9.4 22:12:08 10° SW 22:16:03 15° S 22:16:39 15° S visible
21 Jun 9.4 21:18:22 10° SW 21:22:30 15° S 21:25:56 12° SSE visible
22 Jun 9.6 22:19:23 10° SW 22:21:44 12° SSW 22:22:04 11° SSW visible
23 Jun 9.5 21:25:01 10° SW 21:28:13 13° SSW 21:31:18 10° SSE visible
